[[{"header":{"parameterUnit":"m.s-1","parameterCategory":1,"la1":30.2991,"la2":30.254,"lo1":-89.0895,"lo2":-89.0444,"dy":0.0017,"dx":0.0017,"nx":28,"ny":28,"refTime":"2025-05-28T21:00:00:Z","depth":0,"parameterNumber":2,"parameterNumberName":"U-component_of_WINDS"},"data":[0,0,0,0,0,0,0,0,0,0,0,0,0,0,0,0,0,0,0,0,0,0,0,0,0,0,0,0,0,0,0,0,0,0,0,0,0,0,0,0,0,0,0,0,0,0,0,0,0,0,0,0,0,0,0,0,0,0,5.3001,5.3003,0,5.3198,5.32,5.3202,5.317,5.3166,5.3163,5.3159,5.3364,5.3372,5.3381,0,0,0,0,0,0,0,0,0,0,0,0,0,5.2596,5.2603,5.3,5.3003,5.3005,5.3197,5.32,5.3203,5.317,5.3166,5.3162,5.3158,5.3361,5.3371,5.3382,0,0,0,0,0,0,0,0,0,0,0,0,0,5.278,5.2606,5.3,5.3012,5.3015,5.3197,5.32,5.3203,5.3171,5.3166,5.3161,5.3156,5.3358,5.337,5.3383,5.3566,0,0,5.3423,5.3428,0,0,0,0,0,0,0,0,5.277,5.2795,5.3008,5.3012,5.3015,5.3154,5.3132,5.3325,5.3172,5.3112,5.3159,5.3153,5.3298,5.3316,5.3364,5.3575,5.3584,5.3424,5.3432,5.3437,5.3441,0,0,0,0,0,0,0,5.2757,5.2786,5.3078,5.3011,5.3016,5.3008,5.3028,5.3169,5.3232,5.3117,5.3115,5.3139,5.3299,5.3352,5.3369,5.3587,5.3423,5.3435,5.3443,5.3448,5.3954,5.3959,0,0,0,0,0,0,5.274,5.2776,5.3072,5.3084,5.2877,5.3019,5.3042,5.3115,5.323,5.3243,5.3143,5.3136,5.3332,5.3354,5.3376,5.3594,5.3437,5.3449,5.3457,5.3948,5.3955,5.3961,0,0,0,0,0,0,5.2732,5.2767,5.3064,5.293,5.2967,5.3032,5.3113,5.3121,5.3173,5.3249,5.3261,5.3185,5.3329,5.3357,5.3518,5.3601,5.3455,5.3467,5.3942,5.395,5.3958,5.4035,0,0,0,0,0,0,5.272,5.2764,5.2835,5.2932,5.2974,5.3203,5.3118,5.3129,5.3195,5.3189,5.3292,5.3304,5.3327,5.3498,5.353,5.3616,5.3477,5.3934,5.3945,5.3956,5.4025,5.4045,5.4062,0,0,0,0,0,5.2706,5.285,5.2838,5.2874,5.3063,5.3208,5.3233,5.3256,5.3202,5.3273,5.3321,5.3301,5.3587,5.3515,5.3551,5.3642,5.3929,5.3942,5.3955,5.4017,5.4041,5.4061,0,0,0,0,0,0,5.2763,5.2863,5.2851,5.3031,5.3111,5.3202,5.3292,5.3281,5.3379,5.3369,5.3394,5.3417,5.3579,5.3627,5.3545,5.3823,5.3751,5.3771,5.3786,5.3809,5.3827,5.3812,5.3488,0,0,0,0,0,5.2796,5.2905,5.2986,5.3137,5.3177,5.3228,5.3292,5.3302,5.3387,5.3421,5.3481,5.3565,5.3673,5.3744,5.3848,5.4032,5.4052,5.4112,5.413,5.4145,5.4162,5.426,5.4286,5.4003,5.4003,5.4003,0,0,5.2866,5.2934,5.3002,5.315,5.3213,5.3324,5.3257,5.3379,5.3461,5.344,5.3594,5.3641,5.3735,5.3907,5.3986,5.3952,5.4245,5.4161,5.4172,5.4182,5.4275,5.4302,5.4326,5.4012,5.401,5.4009,0,0,5.305,5.3114,5.3244,5.3308,5.3404,5.3436,5.3467,5.356,5.359,5.3744,5.3729,5.3828,5.4015,5.4082,5.4141,5.4346,5.433,5.438,5.4475,5.457,5.4592,5.4612,5.4683,5.4708,5.4397,5.4397,5.4397,0,5.3125,5.3292,5.3313,5.3435,5.3499,5.3483,5.3615,5.3676,5.3802,5.3847,5.3807,5.4038,5.4101,5.4287,5.4336,5.4385,5.442,5.4368,5.4587,5.4607,5.4626,5.4694,5.4721,5.4402,5.4402,5.4401,5.4401,0,5.3378,5.3494,5.3588,5.3707,5.3783,5.391,5.3948,5.4022,5.4025,5.4061,5.4217,5.4291,5.4409,5.4454,5.446,5.464,5.4615,5.4581,5.4509,5.4658,5.4722,5.4748,5.441,5.4408,5.4406,5.4405,0,0,5.3606,5.3732,5.3766,5.3818,5.3921,5.4011,5.4136,5.4249,5.4311,5.4398,5.4502,5.4659,5.4627,5.4693,5.4706,5.4789,5.4943,5.4744,5.4747,5.4777,5.5143,5.5167,5.5197,5.4933,5.4938,5.4942,5.5134,0,5.3797,5.4017,5.4037,5.4234,5.4339,5.4324,5.4432,5.4507,5.4543,5.4638,5.4679,5.4789,5.474,5.4779,5.4861,5.4907,5.5017,5.4894,5.5029,5.5034,5.5004,5.5231,5.5257,5.5435,5.516,5.5164,5.5167,0,5.4051,5.4142,5.4349,5.4434,5.4479,5.4576,5.4679,5.4771,5.4855,5.4875,5.4947,5.4948,5.5075,5.4998,5.5173,5.5089,5.5145,5.5176,5.5183,5.5196,5.5109,5.5247,5.5492,5.5518,5.5208,5.5204,5.5202,0,5.4193,5.4368,5.4513,5.4558,5.4662,5.473,5.4777,5.4855,5.492,5.5011,5.5053,5.5159,5.5216,5.5297,5.5325,5.5267,5.5498,5.5424,5.5517,5.5516,5.5566,5.5562,5.5821,5.5605,5.5605,5.5604,5.5604,0,5.4404,5.453,5.4577,5.4666,5.4806,5.4828,5.4966,5.501,5.5079,5.5175,5.5169,5.526,5.5293,5.5389,5.5412,5.5551,5.5578,5.5597,5.5602,5.5597,5.5594,5.5634,5.5621,5.5611,5.561,5.5608,5.5607,0,5.4586,5.4622,5.4779,5.4863,5.4887,5.4986,5.5058,5.5144,5.5178,5.53,5.533,5.5384,5.5496,5.5532,5.5669,5.5684,5.5846,5.5841,5.5817,5.5817,5.5907,5.5897,5.62,5.6239,5.5999,5.6001,5.6003,0,5.4717,5.4814,5.4907,5.497,5.5019,5.5122,5.5188,5.5212,5.5281,5.5382,5.5455,5.5565,5.5655,5.5835,5.5886,5.599,5.5986,5.6084,5.6002,5.5992,5.5984,5.5977,5.5986,5.61,5.6102,5.6104,5.6106,0,5.4946,5.4959,5.5053,5.5154,5.5232,5.5313,5.5391,5.5444,5.5479,5.5557,5.567,5.574,5.5877,5.5987,5.6092,5.6139,5.6128,5.6131,5.6158,5.6153,5.6135,5.6143,5.5857,5.6124,5.6123,5.6121,5.612,5.6119,5.5106,5.5189,5.5267,5.5372,5.5432,5.5504,5.5587,5.5631,5.5726,5.5838,5.5847,5.5969,5.6048,5.6187,5.624,5.6335,5.6307,5.6346,5.6356,5.6365,5.637,5.6121,5.6355,5.6354,5.6354,5.6353,5.6353,0,5.5332,5.538,5.5477,5.5584,5.5666,5.5647,5.5732,5.5802,5.5909,5.5982,5.607,5.6199,5.6304,5.6362,5.6467,5.6532,5.653,5.6559,5.6553,5.6564,5.6391,5.6356,5.6559,5.6559,5.6559,5.6559,5.6559,5.6559,5.5459,5.5598,5.562,5.5788,5.5835,5.5954,5.6003,5.6069,5.6127,5.6271,5.6358,5.6394,5.6461,5.657,5.6665,5.668,5.6718,5.675,5.6761,5.6598,5.6577,5.6556,5.6524,5.6758,5.6759,5.6926,5.6927,5.6928]},{"header":{"parameterUnit":"m.s-1","parameterCategory":1,"la1":30.2991,"la2":30.254,"lo1":-89.0895,"lo2":-89.0444,"dy":0.0017,"dx":0.0017,"nx":28,"ny":28,"refTime":"2025-05-28T21:00:00:Z","depth":0,"parameterNumber":3,"parameterNumberName":"V-component_of_WINDS"},"data":[0,0,0,0,0,0,0,0,0,0,0,0,0,0,0,0,0,0,0,0,0,0,0,0,0,0,0,0,0,0,0,0,0,0,0,0,0,0,0,0,0,0,0,0,0,0,0,0,0,0,0,0,0,0,0,0,0,0,1.528,1.528,0,1.534,1.5341,1.5341,1.5319,1.5317,1.5316,1.5315,1.5377,1.538,1.5383,0,0,0,0,0,0,0,0,0,0,0,0,0,1.5145,1.5147,1.528,1.528,1.5281,1.534,1.5341,1.5342,1.5319,1.5317,1.5316,1.5314,1.5376,1.538,1.5383,0,0,0,0,0,0,0,0,0,0,0,0,0,1.5204,1.5148,1.528,1.5277,1.5277,1.534,1.5341,1.5342,1.5319,1.5317,1.5315,1.5313,1.5375,1.5379,1.5384,1.5452,0,0,1.5397,1.5399,0,0,0,0,0,0,0,0,1.5201,1.5209,1.5277,1.5277,1.5278,1.532,1.5316,1.5379,1.532,1.5304,1.5315,1.5312,1.536,1.5365,1.5381,1.5455,1.5458,1.5397,1.54,1.5402,1.5403,0,0,0,0,0,0,0,1.5197,1.5206,1.5304,1.5278,1.5278,1.5273,1.5279,1.5328,1.5342,1.5305,1.5303,1.5311,1.536,1.5377,1.5382,1.5459,1.5397,1.5401,1.5404,1.5406,1.5591,1.5593,0,0,0,0,0,0,1.5192,1.5203,1.5302,1.5305,1.5233,1.5277,1.5284,1.5308,1.5342,1.5345,1.5312,1.5309,1.537,1.5377,1.5385,1.5467,1.5402,1.5406,1.5409,1.5589,1.5592,1.5594,0,0,0,0,0,0,1.5189,1.5201,1.5299,1.5254,1.5266,1.5281,1.5309,1.5311,1.5328,1.5348,1.535,1.5327,1.5369,1.5378,1.5435,1.5469,1.5408,1.5412,1.5586,1.559,1.5593,1.5632,0,0,0,0,0,0,1.5186,1.52,1.5227,1.5255,1.5268,1.5349,1.5311,1.5313,1.5336,1.5332,1.5362,1.5365,1.5368,1.5429,1.544,1.5474,1.5416,1.5583,1.5588,1.5592,1.5628,1.5637,1.5644,0,0,0,0,0,1.5181,1.5236,1.5228,1.524,1.5302,1.5351,1.5359,1.5361,1.5338,1.5365,1.5377,1.5364,1.5463,1.5435,1.5447,1.5483,1.5581,1.5587,1.5592,1.5625,1.5635,1.5644,0,0,0,0,0,0,1.5212,1.5239,1.5231,1.5297,1.5322,1.5347,1.5381,1.5372,1.5404,1.54,1.5401,1.5408,1.5467,1.548,1.5448,1.5551,1.5519,1.5527,1.554,1.555,1.5558,1.5553,1.5419,0,0,0,0,0,1.5226,1.5264,1.5286,1.5342,1.5355,1.5366,1.5387,1.5387,1.5413,1.5423,1.544,1.5466,1.5502,1.5527,1.5562,1.563,1.5636,1.566,1.5668,1.5674,1.5681,1.5718,1.5729,1.5611,1.5611,1.5611,0,0,1.5257,1.5276,1.53,1.5349,1.5368,1.5407,1.5375,1.5418,1.5447,1.543,1.5485,1.5498,1.5527,1.5589,1.5618,1.5602,1.5715,1.5681,1.5686,1.5689,1.5724,1.5735,1.5745,1.5615,1.5614,1.5613,0,0,1.5332,1.5351,1.5399,1.5419,1.5448,1.5455,1.5466,1.5493,1.5501,1.5556,1.5544,1.5578,1.5642,1.5662,1.5681,1.5763,1.5753,1.5775,1.5816,1.5852,1.5861,1.5869,1.5899,1.5909,1.5781,1.5781,1.5781,0,1.5366,1.5425,1.5425,1.5469,1.549,1.5476,1.5524,1.5544,1.5583,1.5598,1.558,1.5659,1.5677,1.5745,1.5764,1.578,1.5793,1.5772,1.586,1.5868,1.5876,1.5904,1.5915,1.5784,1.5784,1.5783,1.5783,0,1.5465,1.5506,1.5541,1.5579,1.5605,1.5651,1.5658,1.5683,1.568,1.5688,1.5744,1.5765,1.5804,1.582,1.5817,1.5887,1.5876,1.5859,1.5827,1.5889,1.5916,1.5926,1.5787,1.5787,1.5786,1.5785,0,0,1.5563,1.56,1.5613,1.563,1.566,1.5692,1.5737,1.5774,1.5796,1.5824,1.5861,1.5915,1.5899,1.592,1.592,1.5951,1.6014,1.593,1.593,1.5945,1.6092,1.6105,1.6117,1.6007,1.6009,1.601,1.6089,0,1.5641,1.572,1.5721,1.5794,1.5832,1.5818,1.5857,1.588,1.5889,1.5922,1.5931,1.5969,1.5945,1.5958,1.5988,1.6,1.6044,1.5994,1.6042,1.6044,1.6036,1.6131,1.6145,1.6219,1.61,1.6101,1.6103,0,1.5743,1.5773,1.585,1.5874,1.589,1.5925,1.596,1.5991,1.6017,1.6021,1.6044,1.6039,1.6084,1.605,1.6113,1.608,1.6099,1.6107,1.611,1.6115,1.6078,1.6139,1.6242,1.6254,1.6119,1.6118,1.6116,0,1.5807,1.5867,1.592,1.5935,1.5965,1.599,1.6004,1.6027,1.6049,1.6079,1.6093,1.6128,1.6147,1.6174,1.6178,1.6153,1.6241,1.6207,1.6246,1.6246,1.6265,1.6264,1.6374,1.6277,1.6277,1.6277,1.6276,0,1.5894,1.5942,1.5949,1.5982,1.6034,1.6034,1.6086,1.6098,1.6119,1.6153,1.6143,1.6176,1.6179,1.6212,1.6215,1.6267,1.6276,1.628,1.6281,1.6282,1.6281,1.6295,1.629,1.628,1.6279,1.6278,1.6278,0,1.5975,1.5982,1.6039,1.6062,1.6069,1.6107,1.6127,1.6158,1.6166,1.621,1.622,1.6232,1.6271,1.6277,1.6323,1.6324,1.6386,1.6381,1.6378,1.6377,1.6415,1.6412,1.6538,1.6555,1.6447,1.6448,1.6449,0,1.6031,1.6067,1.6094,1.6116,1.6131,1.6167,1.619,1.6191,1.6215,1.6246,1.6273,1.6311,1.6342,1.6404,1.6417,1.6452,1.6448,1.6489,1.6453,1.6452,1.6449,1.6447,1.645,1.6497,1.6498,1.6499,1.65,0,1.6129,1.613,1.6163,1.6196,1.6223,1.625,1.6275,1.6294,1.6298,1.6326,1.6365,1.6389,1.6435,1.6473,1.6507,1.6521,1.6511,1.6511,1.6522,1.6523,1.652,1.6522,1.6397,1.6508,1.6507,1.6507,1.6506,1.6506,1.6199,1.623,1.6253,1.629,1.6309,1.6333,1.6363,1.6374,1.6407,1.6445,1.6443,1.6486,1.651,1.6555,1.6571,1.6605,1.6592,1.6607,1.6611,1.6615,1.6619,1.6514,1.6611,1.6611,1.6611,1.6611,1.661,0,1.6296,1.631,1.6344,1.6379,1.6408,1.6396,1.6423,1.6447,1.6486,1.6509,1.6538,1.6584,1.662,1.6635,1.667,1.6694,1.6691,1.6704,1.6702,1.6706,1.6629,1.6616,1.6706,1.6706,1.6706,1.6706,1.6706,1.6706,1.635,1.6402,1.6406,1.6467,1.6481,1.6524,1.654,1.6562,1.658,1.6631,1.6661,1.667,1.669,1.6726,1.6759,1.6762,1.6776,1.6791,1.6792,1.6721,1.6711,1.6702,1.669,1.6794,1.6794,1.6866,1.6867,1.6867]}]]